Find Starlink 31443

NORAD ID: 59393 Int'l Des: 2024-062 Owner: SPXS Country: US Constellation: starlink operational
LEOCIRCULAR

当前视图

正在加载3D地球...

About Starlink 31443

Starlink 31443 (NORAD 59393) is a starlink constellation satellite (v2 mini) launched Apr 2, 2024 by SPXS of US. It operates in LEO, CIRCULAR orbit with a mass of 730.00 kg.

即将过境

Passes for default location (London). Set your location on the main map for personalized predictions.

高度历史

Loading altitude history...

两行轨道根数

1 59393U 24062V 26262.90564079 .00000827 00000-0 35619-4 0 9996
2 59393 53.1597 56.5539 0001089 87.0323 273.0804 15.34378056139644
Epoch: Sep 19, 2026 • Age: 15 hours

当前状态

高度 481.2 km
远地点 / 近地点 N/A
速度 7.62 km/s
星下点 -51.15°S, 108.11°E
发射日期 Apr 2, 2024
运行时间 2.4 years
类型 internet

技术详情

分类 Payload
质量 730.00 kg
干质量 700.00 kg
长度 0.30 m
跨度 29.00 m
形状 ? Box + pan
制造商 SPXS
平台类型 Starlink V2M
阶段状态 In Orbit
所有者/国家 SPXS/US

Most Searched